Regional Weather Roundup
Issued by NWS

Home | Current Version | Previous Version | Text Only | Print | Product List | Glossary Off
Versions: 1 2 3 4 5 6 7 8 9 10 11 12 13 14 15 16 17 18 19 20 21 22 23 24 25 26 27 28 29 30 31 32 33 34 35 36 37 38 39 40 41 42 43 44 45 46 47 48 49 50

000
ASUS45 KBOU 260110
RWRCO

WEATHER ROUNDUP FOR COLORADO
NATIONAL WEATHER SERVICE DENVER/BOULDER CO
700 PM MDT SUN SEP 25 2016

NOTE: "FAIR" INDICATES FEW OR NO CLOUDS BELOW 12000 FEET WITH NO
SIGNIFICANT WEATHER AND/OR OBSTRUCTIONS TO VISIBILITY.

COZ001>005-013-030-031-260200-
...NORTHWEST COLORADO...

CITY           SKY/WX    TMP DP  RH WIND       PRES   REMARKS
CRAIG          FAIR      57  34  41 N3        30.47S
HAYDEN         FAIR      55  30  38 NW5       30.48S
MEEKER         FAIR      56  34  43 N10       30.46R
MOUNT WERNER   NOT AVBL
STEAMBOAT SPGS FAIR      55  32  42 SW3       30.48S
WALDEN           N/A     50  27  40 N12       30.53S
$$

COZ006>008-011-260200-
...WEST CENTRAL VALLEYS...

CITY           SKY/WX    TMP DP  RH WIND       PRES   REMARKS
GRAND JUNCTION FAIR      65  40  39 NW3       30.34S
MONTROSE       FAIR      62  36  37 W3        30.40F
EAGLE          CLEAR     63  30  29 W7        30.43S
RIFLE          FAIR      64  37  36 W8        30.38S
DELTA          NOT AVBL
NUCLA          FAIR      64  32  29 NW8       30.40S
$$

COZ017>023-064>068-260200-
...SOUTHWEST COLORADO...

CITY           SKY/WX    TMP DP  RH WIND       PRES   REMARKS
DURANGO        FAIR      65  30  27 W9        30.36S
CORTEZ         FAIR      63  37  38 SW8       30.34R
PAGOSA SPRINGS FAIR      62  28  27 W6        30.42R
TELLURIDE      FAIR      54  37  53 W8        30.53R
WOLF CREEK PAS FAIR      41  28  60 SW10      30.69S
$$

COZ009-010-012-014-032>034-037-058>063-260200-
...CENTRAL COLORADO...

CITY           SKY/WX    TMP DP  RH WIND       PRES   REMARKS
ASPEN          FAIR      51  32  48 CALM      30.47R
BUENA VISTA    FAIR      55  28  35 SW5       30.43R
COPPER MTN     FAIR      45  23  42 NW10      30.69S
BERTHOUD PASS  FAIR      32  19  59 MISG      30.71R
COTTONWOOD PAS FAIR      55  23  28 E7        30.55R
GUNNISON       FAIR      58  33  39 W5        30.44R
KREMMLING      FAIR      55  21  26 NW9       30.49R
LEADVILLE      FAIR      48  20  32 N10       30.56R
MONARCH PASS   FAIR      43  19  39 SW13      30.77S
SALIDA         FAIR      60  29  30 SE18G25   30.49R
SUNLIGHT       FAIR      41  32  70 NW5       30.66F
WILKERSON PASS FAIR      37  27  65 E13G23    30.67S
$$

COZ069>075-260200-
...SAN LUIS VALLEY/SANGRE DE CRISTO MOUNTAINS...

CITY           SKY/WX    TMP DP  RH WIND       PRES   REMARKS
ALAMOSA        FAIR      58  27  30 S5        30.41S
LA VETA PASS   FAIR      39  28  65 MISG      30.59R
SAGUACHE       NOT AVBL
$$

COZ035-036-038>040-260200-
...NORTHERN COLORADO FRONT RANGE...

CITY           SKY/WX    TMP DP  RH WIND       PRES   REMARKS
DENVER INTL AP FAIR      59  29  31 E7        30.40R
DMNS CITY PARK NOT AVBL
AURORA         CLEAR     57  29  33 E7        30.41R
FRONT RANGE AP CLEAR     63  30  29 NE5       30.41
ERIE MUNI ARPT FAIR      63  30  29 E3        30.39R
BOULDER MUN AP FAIR      61  32  33 E3        30.39R
CENTENNIAL     FAIR      60  28  29 E6        30.42R
BROOMFIELD     CLEAR     63  30  29 E7        30.41R
FORT COLLINS   FAIR      61  34  36 S6        30.37R
LONGMONT       FAIR      64  33  32 CALM      30.40R
$$

COZ041-046-047-076>085-087-088-260200-
...PIKES PEAK/PALMER DIVIDE AND SOUTHERN FOOTHILLS...

CITY           SKY/WX    TMP DP  RH WIND       PRES   REMARKS
COLO. SPRINGS  FAIR      58  29  33 S9        30.44R
A. F. ACADEMY  FAIR      56  31  38 S8        30.44R
SCHRIEVER AFB  NOT AVBL
ELLICOTT       NOT AVBL
FALCON         FAIR      53  31  42 S6        30.47R
FORT CARSON    FAIR      60  29  31 SE7       30.41R
LIMON          FAIR      53  26  35 NE6       30.41R
MONUMENT HILL  FAIR      52  28  40 E6        30.48R
TRINIDAD       FAIR      58  31  35 E5        30.41S
$$

COZ042>045-048>051-090-091-260200-
...NORTHEAST COLORADO...

CITY           SKY/WX    TMP DP  RH WIND       PRES   REMARKS
GREELEY ARPT   FAIR      61  36  39 S7        30.38R
AKRON          FAIR      57  32  38 NE10      30.38R
BURLINGTON     FAIR      57  35  43 NE8       30.37R
WRAY           NOT AVBL
STERLING       FAIR      59  36  41 NE6       30.35R
HOLYOKE        FAIR      59  32  36 N7        30.36R
FORT MORGAN    FAIR      56  30  37 E8        30.38R
$$

COZ086-089-092>099-260200-
...SOUTHEAST COLORADO...

CITY           SKY/WX    TMP DP  RH WIND       PRES   REMARKS
PUEBLO         FAIR      66  32  28 SE7       30.36R
LA JUNTA       FAIR      66  31  27 E6        30.35S
LAMAR          FAIR      64  33  31 NE6       30.32S
SPRINGFIELD    NOT AVBL
$$



USA.gov is the U.S. government's official web portal to all federal, state and local government web resources and services.